QPF
0.00 0.00 0.00 0.00 0.00 0.00 0.00 0.00 0.00 0.00 0.00 0.00 0.00 0.00 0.00 0.00 0.00 0.00 0.00 0.00 0.00 0.00 0.00 0.00 0.00 0.01 0.01 0.01 0.00 0.00 0.00 0.00 0.00 0.01 0.01 0.01 0.02 0.04 0.05 0.04 0.04 0.04 0.03
0.00 0.00 0.00 0.00 0.00 0.00 0.00 0.00 0.00 0.00 0.00 0.00 0.00 0.00 0.00 0.00 0.00 0.00 0.00 0.00 0.00 0.00 0.00 0.00 0.00 0.00 0.01 0.00 0.00 0.00 0.00 0.00 0.00 0.01 0.01 0.01 0.01 0.02 0.03 0.03 0.03 0.03 0.03
0.00 0.00 0.00 0.00 0.00 0.00 0.00 0.00 0.00 0.00 0.00 0.00 0.00 0.00 0.00 0.00 0.00 0.00 0.00 0.00 0.00 0.00 0.00 0.00 0.00 0.00 0.00 0.01 0.01 0.00 0.01 0.01 0.00 0.00 0.01 0.01 0.01 0.02 0.02 0.02 0.02 0.02 0.02
0.00 0.00 0.00 0.00 0.00 0.00 0.00 0.00 0.00 0.00 0.00 0.00 0.00 0.00 0.00 0.00 0.00 0.00 0.00 0.00 0.00 0.00 0.00 0.00 0.00 0.00 0.01 0.01 0.01 0.01 0.01 0.01 0.00 0.00 0.00 0.01 0.00 0.01 0.01 0.01 0.01 0.01 0.02
0.00 0.00 0.00 0.00 0.00 0.00 0.00 0.00 0.00 0.00 0.00 0.00 0.00 0.00 0.00 0.00 0.00 0.00 0.00 0.00 0.00 0.00 0.00 0.00 0.00 0.00 0.01 0.01 0.01 0.01 0.01 0.01 0.01 0.00 0.01 0.01 0.01 0.01 0.01 0.02 0.01 0.01 0.02
0.00 0.00 0.00 0.00 0.00 0.00 0.00 0.00 0.00 0.00 0.00 0.00 0.00 0.00 0.00 0.00 0.00 0.00 0.00 0.00 0.00 0.00 0.00 0.00 0.00 0.00 0.01 0.02 0.01 0.01 0.01 0.01 0.01 0.01 0.01 0.01 0.01 0.01 0.01 0.01 0.02 0.02 0.02
0.00 0.00 0.00 0.00 0.00 0.00 0.00 0.00 0.00 0.00 0.00 0.00 0.00 0.00 0.00 0.00 0.00 0.00 0.00 0.00 0.00 0.00 0.00 0.00 0.00 0.00 0.01 0.01 0.02 0.03 0.03 0.03 0.02 0.01 0.02 0.03 0.02 0.02 0.01 0.01 0.01 0.02 0.02
0.00 0.00 0.00 0.00 0.00 0.00 0.00 0.00 0.00 0.00 0.00 0.00 0.00 0.00 0.00 0.00 0.00 0.00 0.00 0.00 0.00 0.00 0.00 0.00 0.00 0.00 0.00 0.01 0.01 0.02 0.03 0.03 0.02 0.01 0.02 0.03 0.03 0.03 0.03 0.02 0.02 0.02 0.03
0.00 0.00 0.00 0.00 0.00 0.00 0.00 0.00 0.00 0.00 0.00 0.00 0.00 0.00 0.00 0.00 0.00 0.00 0.00 0.00 0.00 0.00 0.00 0.00 0.00 0.00 0.00 0.00 0.01 0.01 0.02 0.02 0.02 0.01 0.01 0.02 0.02 0.02 0.03 0.03 0.03 0.03 0.03
0.00 0.00 0.00 0.00 0.00 0.00 0.00 0.00 0.00 0.00 0.00 0.00 0.00 0.00 0.00 0.00 0.00 0.00 0.00 0.00 0.00 0.00 0.00 0.00 0.00 0.00 0.00 0.00 0.01 0.01 0.01 0.01 0.02 0.02 0.01 0.01 0.01 0.01 0.01 0.02 0.03 0.03 0.03
0.00 0.00 0.00 0.00 0.00 0.00 0.00 0.00 0.00 0.00 0.00 0.00 0.00 0.00 0.00 0.00 0.00 0.00 0.00 0.00 0.00 0.00 0.00 0.00 0.00 0.00 0.00 0.00 0.01 0.01 0.01 0.01 0.01 0.01 0.01 0.01 0.01 0.01 0.01 0.01 0.03 0.04 0.03
0.00 0.00 0.00 0.00 0.00 0.00 0.00 0.00 0.00 0.00 0.00 0.00 0.00 0.00 0.00 0.00 0.00 0.00 0.00 0.00 0.00 0.00 0.00 0.00 0.00 0.00 0.00 0.00 0.00 0.01 0.01 0.01 0.02 0.02 0.02 0.01 0.01 0.01 0.02 0.01 0.02 0.03 0.03
0.00 0.00 0.00 0.00 0.00 0.00 0.00 0.00 0.00 0.00 0.00 0.00 0.00 0.00 0.00 0.00 0.00 0.00 0.00 0.00 0.00 0.00 0.00 0.00 0.00 0.00 0.00 0.00 0.00 0.01 0.01 0.02 0.03 0.03 0.03 0.02 0.01 0.01 0.02 0.02 0.02 0.02 0.03
0.00 0.00 0.00 0.00 0.00 0.00 0.00 0.00 0.00 0.00 0.00 0.00 0.00 0.00 0.00 0.00 0.00 0.00 0.00 0.00 0.00 0.00 0.00 0.00 0.00 0.00 0.01 0.01 0.00 0.01 0.01 0.03 0.04 0.04 0.04 0.03 0.02 0.01 0.02 0.02 0.02 0.02 0.02
0.00 0.00 0.00 0.00 0.00 0.00 0.00 0.00 0.00 0.00 0.00 0.00 0.00 0.00 0.00 0.00 0.00 0.00 0.01 0.01 0.00 0.00 0.00 0.00 0.00 0.01 0.01 0.01 0.01 0.01 0.02 0.03 0.04 0.04 0.04 0.03 0.03 0.02 0.02 0.03 0.03 0.03 0.03
0.00 0.00 0.00 0.00 0.00 0.00 0.00 0.00 0.00 0.00 0.00 0.00 0.00 0.00 0.00 0.00 0.00 0.00 0.01 0.01 0.00 0.00 0.00 0.00 0.00 0.00 0.00 0.01 0.01 0.02 0.02 0.03 0.04 0.04 0.04 0.04 0.03 0.03 0.03 0.03 0.04 0.04 0.03
0.00 0.00 0.00 0.00 0.00 0.00 0.00 0.00 0.00 0.00 0.00 0.00 0.00 0.00 0.00 0.00 0.00 0.00 0.00 0.00 0.00 0.00 0.00 0.00 0.00 0.00 0.00 0.01 0.01 0.01 0.01 0.02 0.03 0.04 0.04 0.05 0.04 0.04 0.04 0.04 0.04 0.05 0.05
0.00 0.00 0.00 0.00 0.00 0.00 0.00 0.00 0.00 0.00 0.00 0.00 0.00 0.00 0.00 0.00 0.00 0.00 0.00 0.00 0.00 0.00 0.00 0.00 0.00 0.00 0.00 0.00 0.00 0.01 0.01 0.01 0.02 0.03 0.03 0.04 0.05 0.05 0.04 0.05 0.05 0.06 0.06
0.00 0.00 0.00 0.00 0.00 0.00 0.00 0.00 0.00 0.00 0.00 0.00 0.00 0.00 0.00 0.00 0.00 0.00 0.00 0.00 0.00 0.00 0.00 0.00 0.00 0.00 0.00 0.00 0.00 0.00 0.00 0.00 0.01 0.02 0.03 0.03 0.04 0.04 0.05 0.05 0.06 0.07 0.07
0.00 0.00 0.00 0.00 0.00 0.00 0.00 0.00 0.00 0.00 0.00 0.00 0.00 0.00 0.00 0.00 0.00 0.00 0.00 0.00 0.00 0.00 0.00 0.00 0.00 0.00 0.00 0.00 0.00 0.00 0.00 0.00 0.01 0.02 0.03 0.03 0.04 0.04 0.04 0.05 0.06 0.07 0.07
0.00 0.00 0.00 0.00 0.00 0.00 0.00 0.00 0.00 0.00 0.00 0.00 0.00 0.00 0.00 0.00 0.00 0.00 0.00 0.00 0.00 0.00 0.00 0.00 0.00 0.00 0.00 0.00 0.00 0.00 0.00 0.00 0.00 0.01 0.02 0.03 0.03 0.03 0.04 0.04 0.05 0.06 0.07
0.00 0.00 0.00 0.00 0.00 0.00 0.00 0.00 0.00 0.00 0.00 0.00 0.00 0.00 0.00 0.00 0.00 0.00 0.00 0.00 0.00 0.00 0.00 0.00 0.00 0.00 0.00 0.00 0.00 0.00 0.00 0.01 0.01 0.01 0.02 0.03 0.03 0.04 0.04 0.05 0.05 0.06 0.07
0.00 0.00 0.00 0.00 0.00 0.00 0.00 0.00 0.00 0.00 0.00 0.00 0.00 0.00 0.00 0.00 0.00 0.00 0.00 0.00 0.00 0.00 0.00 0.00 0.00 0.00 0.00 0.00 0.00 0.00 0.00 0.01 0.01 0.01 0.02 0.03 0.04 0.04 0.04 0.05 0.05 0.07 0.07
0.00 0.00 0.00 0.00 0.00 0.00 0.00 0.00 0.00 0.00 0.00 0.00 0.00 0.00 0.00 0.00 0.00 0.00 0.00 0.00 0.00 0.00 0.00 0.00 0.00 0.00 0.00 0.00 0.00 0.00 0.00 0.01 0.01 0.02 0.02 0.02 0.03 0.03 0.04 0.04 0.05 0.05 0.07
0.00 0.00 0.00 0.00 0.00 0.00 0.00 0.00 0.00 0.00 0.00 0.00 0.00 0.00 0.00 0.00 0.00 0.00 0.00 0.00 0.00 0.00 0.00 0.00 0.00 0.00 0.00 0.00 0.00 0.00 0.00 0.01 0.01 0.02 0.02 0.02 0.03 0.03 0.04 0.04 0.05 0.05 0.06
0.00 0.00 0.00 0.00 0.00 0.00 0.00 0.00 0.00 0.00 0.00 0.00 0.00 0.00 0.00 0.00 0.00 0.00 0.00 0.00 0.00 0.00 0.00 0.00 0.00 0.00 0.00 0.00 0.00 0.00 0.00 0.00 0.01 0.01 0.02 0.03 0.03 0.03 0.04 0.04 0.05 0.05 0.05
MSLP
1016.32 1016.50 1016.75 1017.05 1017.32 1017.55 1017.72 1017.83 1017.90 1017.94 1017.99 1018.06 1018.14 1018.24 1018.33 1018.39 1018.42 1018.40 1018.35 1018.26 1018.17 1018.09 1018.03 1018.01 1018.01 1018.03 1018.05 1018.04 1017.99 1017.87 1017.68 1017.44 1017.15 1016.83 1016.51 1016.22 1015.97 1015.79 1015.67 1015.61 1015.61 1015.64 1015.69
1016.39 1016.49 1016.68 1016.92 1017.17 1017.39 1017.58 1017.71 1017.82 1017.90 1017.98 1018.06 1018.15 1018.24 1018.33 1018.40 1018.44 1018.45 1018.42 1018.37 1018.32 1018.27 1018.24 1018.24 1018.25 1018.28 1018.30 1018.30 1018.26 1018.16 1018.00 1017.78 1017.52 1017.22 1016.92 1016.62 1016.35 1016.12 1015.94 1015.81 1015.73 1015.67 1015.63
1016.50 1016.54 1016.67 1016.86 1017.07 1017.28 1017.47 1017.62 1017.75 1017.85 1017.95 1018.04 1018.13 1018.23 1018.31 1018.38 1018.43 1018.46 1018.46 1018.45 1018.43 1018.42 1018.42 1018.43 1018.46 1018.49 1018.52 1018.52 1018.49 1018.42 1018.30 1018.12 1017.90 1017.64 1017.37 1017.08 1016.81 1016.55 1016.32 1016.13 1015.96 1015.81 1015.68
1016.71 1016.71 1016.79 1016.93 1017.10 1017.28 1017.45 1017.60 1017.74 1017.85 1017.95 1018.04 1018.13 1018.22 1018.29 1018.36 1018.42 1018.46 1018.48 1018.50 1018.51 1018.53 1018.55 1018.58 1018.61 1018.64 1018.67 1018.68 1018.66 1018.61 1018.52 1018.40 1018.23 1018.03 1017.80 1017.55 1017.29 1017.03 1016.77 1016.53 1016.30 1016.08 1015.87
1017.02 1017.01 1017.05 1017.15 1017.27 1017.41 1017.56 1017.70 1017.82 1017.93 1018.02 1018.10 1018.18 1018.24 1018.31 1018.36 1018.41 1018.45 1018.49 1018.52 1018.56 1018.59 1018.62 1018.65 1018.68 1018.71 1018.72 1018.73 1018.72 1018.68 1018.63 1018.54 1018.43 1018.29 1018.12 1017.93 1017.71 1017.47 1017.22 1016.96 1016.70 1016.44 1016.19
1017.43 1017.42 1017.44 1017.50 1017.59 1017.69 1017.80 1017.91 1018.02 1018.11 1018.19 1018.25 1018.30 1018.34 1018.37 1018.40 1018.44 1018.47 1018.50 1018.54 1018.57 1018.61 1018.64 1018.66 1018.67 1018.68 1018.68 1018.66 1018.64 1018.61 1018.57 1018.53 1018.47 1018.39 1018.28 1018.15 1017.99 1017.80 1017.59 1017.36 1017.11 1016.85 1016.59
1017.87 1017.89 1017.91 1017.95 1018.00 1018.08 1018.16 1018.25 1018.33 1018.40 1018.46 1018.49 1018.52 1018.52 1018.52 1018.52 1018.52 1018.53 1018.54 1018.57 1018.59 1018.61 1018.63 1018.63 1018.61 1018.59 1018.55 1018.51 1018.46 1018.42 1018.38 1018.35 1018.32 1018.29 1018.25 1018.18 1018.09 1017.97 1017.82 1017.64 1017.44 1017.23 1017.01
1018.27 1018.33 1018.37 1018.41 1018.45 1018.51 1018.58 1018.65 1018.72 1018.78 1018.81 1018.83 1018.82 1018.80 1018.76 1018.72 1018.68 1018.66 1018.64 1018.64 1018.64 1018.64 1018.63 1018.60 1018.56 1018.49 1018.41 1018.32 1018.23 1018.16 1018.10 1018.07 1018.05 1018.05 1018.04 1018.03 1018.01 1017.95 1017.88 1017.77 1017.64 1017.49 1017.34
1018.55 1018.66 1018.74 1018.80 1018.86 1018.92 1018.99 1019.07 1019.14 1019.20 1019.23 1019.23 1019.20 1019.15 1019.08 1019.00 1018.93 1018.87 1018.82 1018.79 1018.77 1018.74 1018.70 1018.64 1018.56 1018.45 1018.33 1018.19 1018.06 1017.94 1017.84 1017.78 1017.75 1017.74 1017.76 1017.77 1017.79 1017.79 1017.77 1017.73 1017.67 1017.60 1017.52
1018.65 1018.83 1018.96 1019.06 1019.16 1019.25 1019.36 1019.45 1019.54 1019.61 1019.65 1019.65 1019.61 1019.54 1019.45 1019.34 1019.24 1019.15 1019.08 1019.02 1018.98 1018.93 1018.87 1018.79 1018.68 1018.54 1018.37 1018.19 1018.01 1017.84 1017.70 1017.59 1017.52 1017.48 1017.48 1017.50 1017.52 1017.54 1017.56 1017.56 1017.55 1017.53 1017.51
1018.57 1018.82 1019.01 1019.18 1019.33 1019.48 1019.62 1019.76 1019.88 1019.98 1020.03 1020.04 1020.00 1019.92 1019.82 1019.69 1019.57 1019.47 1019.38 1019.31 1019.25 1019.20 1019.13 1019.04 1018.92 1018.77 1018.58 1018.36 1018.14 1017.92 1017.73 1017.56 1017.44 1017.36 1017.31 1017.30 1017.30 1017.30 1017.31 1017.32 1017.32 1017.31 1017.32
1018.33 1018.65 1018.91 1019.15 1019.36 1019.57 1019.77 1019.96 1020.12 1020.25 1020.32 1020.35 1020.31 1020.23 1020.12 1019.99 1019.87 1019.75 1019.66 1019.60 1019.54 1019.50 1019.45 1019.37 1019.25 1019.10 1018.90 1018.68 1018.43 1018.18 1017.94 1017.73 1017.55 1017.41 1017.31 1017.23 1017.18 1017.14 1017.10 1017.07 1017.04 1017.02 1017.00
1017.99 1018.37 1018.70 1019.00 1019.28 1019.55 1019.81 1020.04 1020.24 1020.39 1020.48 1020.51 1020.48 1020.41 1020.29 1020.17 1020.04 1019.94 1019.86 1019.81 1019.78 1019.76 1019.73 1019.68 1019.59 1019.46 1019.28 1019.06 1018.81 1018.55 1018.29 1018.04 1017.82 1017.62 1017.46 1017.32 1017.20 1017.09 1016.99 1016.89 1016.79 1016.70 1016.63
1017.58 1018.01 1018.40 1018.77 1019.11 1019.43 1019.73 1019.99 1020.20 1020.36 1020.46 1020.49 1020.46 1020.38 1020.27 1020.15 1020.04 1019.95 1019.89 1019.87 1019.87 1019.88 1019.89 1019.88 1019.83 1019.74 1019.60 1019.41 1019.18 1018.93 1018.67 1018.41 1018.16 1017.93 1017.71 1017.52 1017.33 1017.15 1016.97 1016.79 1016.61 1016.44 1016.28
1017.12 1017.60 1018.04 1018.45 1018.84 1019.19 1019.51 1019.78 1020.00 1020.15 1020.23 1020.25 1020.21 1020.12 1020.01 1019.90 1019.81 1019.74 1019.71 1019.72 1019.75 1019.81 1019.86 1019.89 1019.89 1019.84 1019.74 1019.59 1019.41 1019.19 1018.95 1018.70 1018.45 1018.21 1017.97 1017.74 1017.51 1017.27 1017.03 1016.78 1016.52 1016.26 1016.01
1016.61 1017.12 1017.60 1018.04 1018.46 1018.83 1019.14 1019.40 1019.60 1019.72 1019.78 1019.77 1019.70 1019.61 1019.50 1019.40 1019.32 1019.28 1019.28 1019.33 1019.40 1019.49 1019.58 1019.65 1019.69 1019.68 1019.63 1019.53 1019.38 1019.21 1019.01 1018.80 1018.58 1018.36 1018.13 1017.89 1017.65 1017.38 1017.10 1016.80 1016.49 1016.16 1015.84
1016.01 1016.54 1017.04 1017.51 1017.93 1018.30 1018.60 1018.84 1018.99 1019.08 1019.10 1019.06 1018.98 1018.87 1018.77 1018.68 1018.63 1018.62 1018.65 1018.72 1018.83 1018.95 1019.06 1019.16 1019.23 1019.25 1019.24 1019.17 1019.08 1018.95 1018.80 1018.64 1018.47 1018.29 1018.10 1017.89 1017.66 1017.40 1017.12 1016.81 1016.47 1016.10 1015.73
1015.28 1015.83 1016.34 1016.82 1017.24 1017.59 1017.87 1018.07 1018.19 1018.23 1018.22 1018.15 1018.05 1017.95 1017.86 1017.80 1017.77 1017.79 1017.86 1017.96 1018.09 1018.23 1018.36 1018.47 1018.55 1018.59 1018.59 1018.56 1018.49 1018.41 1018.31 1018.20 1018.08 1017.96 1017.82 1017.66 1017.48 1017.26 1017.01 1016.71 1016.39 1016.02 1015.64
1014.43 1014.97 1015.49 1015.95 1016.36 1016.69 1016.94 1017.11 1017.20 1017.21 1017.17 1017.09 1017.00 1016.90 1016.84 1016.81 1016.82 1016.88 1016.98 1017.11 1017.25 1017.40 1017.53 1017.63 1017.71 1017.74 1017.74 1017.72 1017.67 1017.62 1017.56 1017.49 1017.43 1017.37 1017.29 1017.19 1017.07 1016.91 1016.71 1016.47 1016.18 1015.85 1015.49
1013.47 1014.00 1014.50 1014.95 1015.34 1015.64 1015.87 1016.01 1016.07 1016.06 1016.01 1015.93 1015.86 1015.79 1015.76 1015.77 1015.82 1015.92 1016.05 1016.20 1016.36 1016.50 1016.62 1016.70 1016.76 1016.77 1016.76 1016.73 1016.68 1016.64 1016.60 1016.58 1016.56 1016.55 1016.53 1016.50 1016.44 1016.35 1016.21 1016.03 1015.80 1015.52 1015.20
1012.48 1012.97 1013.44 1013.87 1014.23 1014.50 1014.70 1014.82 1014.86 1014.85 1014.81 1014.74 1014.69 1014.66 1014.67 1014.72 1014.81 1014.95 1015.10 1015.26 1015.42 1015.55 1015.65 1015.71 1015.73 1015.71 1015.68 1015.63 1015.57 1015.53 1015.51 1015.51 1015.52 1015.55 1015.58 1015.60 1015.60 1015.57 1015.50 1015.38 1015.22 1015.00 1014.74
1011.57 1012.01 1012.43 1012.81 1013.12 1013.37 1013.54 1013.63 1013.67 1013.65 1013.61 1013.57 1013.54 1013.54 1013.58 1013.67 1013.80 1013.95 1014.12 1014.28 1014.43 1014.54 1014.61 1014.63 1014.62 1014.57 1014.51 1014.43 1014.37 1014.33 1014.31 1014.32 1014.36 1014.42 1014.49 1014.55 1014.60 1014.62 1014.60 1014.54 1014.44 1014.28 1014.09
1010.84 1011.21 1011.56 1011.88 1012.14 1012.34 1012.47 1012.53 1012.55 1012.52 1012.49 1012.45 1012.44 1012.46 1012.52 1012.62 1012.76 1012.92 1013.08 1013.23 1013.35 1013.42 1013.46 1013.45 1013.40 1013.32 1013.24 1013.15 1013.08 1013.04 1013.03 1013.06 1013.12 1013.20 1013.29 1013.39 1013.47 1013.53 1013.55 1013.54 1013.48 1013.38 1013.24
1010.35 1010.64 1010.91 1011.15 1011.34 1011.48 1011.56 1011.58 1011.56 1011.52 1011.46 1011.42 1011.40 1011.42 1011.47 1011.57 1011.69 1011.82 1011.95 1012.06 1012.15 1012.19 1012.18 1012.14 1012.06 1011.96 1011.86 1011.77 1011.70 1011.67 1011.68 1011.73 1011.81 1011.91 1012.03 1012.15 1012.26 1012.35 1012.41 1012.43 1012.41 1012.35 1012.25
1010.12 1010.31 1010.49 1010.65 1010.76 1010.82 1010.83 1010.80 1010.74 1010.65 1010.57 1010.49 1010.45 1010.43 1010.46 1010.51 1010.59 1010.67 1010.75 1010.81 1010.84 1010.83 1010.78 1010.71 1010.60 1010.49 1010.39 1010.30 1010.26 1010.25 1010.28 1010.36 1010.47 1010.60 1010.74 1010.89 1011.02 1011.13 1011.20 1011.25 1011.26 1011.23 1011.16
1010.10 1010.19 1010.28 1010.34 1010.36 1010.35 1010.28 1010.19 1010.06 1009.93 1009.79 1009.67 1009.58 1009.51 1009.48 1009.48 1009.49 1009.51 1009.52 1009.51 1009.48 1009.41 1009.32 1009.21 1009.09 1008.97 1008.87 1008.81 1008.78 1008.80 1008.87 1008.97 1009.11 1009.27 1009.44 1009.61 1009.76 1009.88 1009.98 1010.04 1010.07 1010.06 1010.02
Thickness
5712 5711 5710 5708 5708 5707 5705 5704 5703 5702 5701 5700 5698 5696 5694 5692 5690 5688 5686 5684 5682 5680 5679 5678 5677 5676 5675 5674 5673 5673 5672 5671 5670 5673 5676 5680 5682 5685 5688 5690 5692 5695 5697
5711 5709 5708 5707 5706 5705 5703 5703 5702 5701 5700 5699 5697 5695 5693 5691 5689 5687 5684 5683 5681 5679 5678 5677 5675 5675 5674 5672 5672 5671 5670 5670 5670 5670 5673 5676 5678 5681 5683 5685 5688 5690 5692
5709 5707 5706 5704 5703 5702 5701 5701 5700 5699 5698 5697 5695 5693 5691 5689 5687 5685 5683 5681 5679 5677 5676 5674 5673 5672 5671 5670 5669 5669 5669 5669 5668 5668 5669 5672 5674 5676 5678 5680 5683 5685 5687
5707 5705 5703 5702 5701 5700 5699 5698 5697 5696 5695 5693 5692 5690 5689 5687 5685 5683 5681 5678 5677 5675 5674 5672 5671 5669 5668 5668 5667 5666 5666 5665 5665 5664 5665 5666 5668 5671 5672 5674 5676 5678 5681
5704 5702 5700 5699 5698 5697 5696 5695 5694 5693 5691 5690 5688 5687 5686 5684 5683 5681 5678 5676 5674 5672 5670 5669 5668 5668 5667 5665 5665 5663 5662 5661 5660 5660 5660 5661 5662 5664 5665 5668 5669 5671 5674
5701 5699 5697 5696 5695 5693 5692 5691 5689 5688 5686 5685 5683 5682 5681 5680 5679 5678 5675 5672 5670 5667 5666 5665 5664 5663 5662 5662 5661 5660 5659 5657 5655 5654 5655 5655 5657 5658 5660 5661 5662 5663 5666
5698 5696 5694 5693 5691 5689 5689 5686 5684 5682 5681 5679 5678 5676 5674 5674 5674 5673 5671 5667 5664 5662 5660 5658 5658 5657 5655 5654 5653 5653 5652 5652 5653 5651 5650 5651 5652 5654 5655 5655 5656 5657 5659
5695 5692 5691 5689 5687 5685 5683 5681 5679 5677 5675 5673 5671 5670 5668 5668 5668 5667 5665 5661 5657 5655 5653 5651 5649 5648 5647 5646 5644 5643 5643 5643 5644 5645 5646 5647 5648 5649 5649 5651 5651 5652 5653
5691 5689 5687 5685 5683 5680 5678 5676 5673 5671 5669 5667 5665 5663 5661 5660 5661 5659 5657 5653 5649 5647 5645 5643 5640 5638 5638 5637 5634 5633 5633 5634 5636 5637 5639 5640 5641 5642 5643 5642 5642 5642 5644
5689 5687 5684 5682 5679 5676 5673 5671 5668 5665 5663 5661 5658 5656 5654 5652 5652 5651 5649 5644 5641 5638 5636 5633 5631 5629 5628 5626 5623 5622 5622 5624 5626 5628 5630 5631 5632 5633 5634 5634 5634 5634 5635
5687 5683 5680 5677 5674 5671 5668 5665 5662 5659 5656 5653 5651 5648 5646 5644 5643 5642 5639 5635 5631 5628 5626 5623 5621 5619 5617 5616 5614 5612 5612 5614 5615 5616 5618 5620 5621 5621 5623 5624 5624 5625 5626
5682 5678 5675 5672 5670 5667 5662 5658 5655 5651 5647 5644 5641 5639 5637 5635 5633 5631 5629 5627 5624 5619 5616 5613 5611 5610 5608 5606 5604 5603 5603 5603 5602 5603 5605 5607 5608 5610 5611 5613 5614 5615 5617
5676 5672 5669 5666 5662 5659 5655 5651 5647 5643 5639 5636 5632 5629 5627 5625 5623 5621 5619 5617 5614 5610 5607 5605 5603 5600 5597 5595 5593 5592 5591 5589 5588 5590 5592 5594 5595 5597 5598 5600 5602 5603 5605
5670 5666 5662 5658 5654 5651 5647 5644 5639 5635 5631 5628 5625 5621 5618 5615 5613 5611 5608 5606 5605 5601 5598 5595 5593 5590 5586 5583 5581 5578 5576 5575 5575 5576 5578 5580 5582 5582 5584 5585 5587 5588 5591
5663 5659 5654 5651 5647 5643 5639 5636 5633 5630 5627 5623 5619 5615 5611 5608 5607 5605 5601 5598 5595 5592 5589 5585 5581 5578 5575 5572 5569 5567 5565 5564 5563 5564 5564 5565 5567 5568 5569 5569 5570 5572 5574
5655 5650 5646 5642 5638 5634 5631 5627 5626 5623 5621 5618 5615 5610 5606 5604 5601 5598 5595 5592 5588 5584 5578 5573 5569 5566 5563 5560 5558 5556 5554 5553 5552 5551 5550 5550 5550 5551 5552 5553 5553 5555 5557
5650 5645 5639 5634 5630 5626 5622 5618 5615 5614 5612 5610 5607 5603 5600 5596 5593 5589 5586 5582 5578 5574 5566 5562 5558 5555 5552 5549 5546 5543 5542 5541 5538 5536 5535 5534 5534 5534 5535 5535 5536 5537 5540
5642 5638 5632 5626 5622 5617 5613 5609 5605 5602 5599 5597 5597 5594 5591 5587 5583 5579 5575 5570 5565 5560 5555 5551 5547 5544 5540 5537 5534 5531 5529 5527 5524 5521 5519 5518 5517 5517 5518 5519 5519 5520 5522
5633 5628 5623 5618 5613 5609 5604 5600 5595 5592 5589 5586 5584 5582 5581 5577 5573 5569 5564 5557 5553 5549 5544 5540 5536 5533 5529 5525 5522 5518 5515 5512 5509 5506 5504 5503 5501 5500 5501 5502 5503 5504 5505
5624 5622 5616 5609 5604 5599 5594 5590 5585 5582 5579 5575 5572 5571 5569 5564 5559 5556 5551 5546 5542 5538 5534 5530 5526 5521 5517 5512 5508 5505 5501 5498 5494 5492 5490 5488 5487 5486 5486 5487 5488 5489 5492
5615 5611 5608 5601 5594 5590 5585 5581 5577 5573 5569 5566 5564 5562 5558 5552 5549 5545 5541 5536 5531 5528 5523 5519 5514 5509 5504 5499 5494 5490 5486 5484 5480 5478 5476 5475 5473 5473 5474 5474 5475 5477 5479
5605 5600 5595 5590 5585 5581 5576 5572 5568 5563 5560 5557 5554 5551 5548 5542 5537 5534 5530 5526 5522 5517 5512 5506 5502 5497 5491 5486 5481 5476 5473 5470 5467 5464 5463 5463 5462 5462 5462 5462 5464 5465 5467
5595 5589 5584 5579 5575 5571 5567 5561 5557 5553 5549 5546 5542 5538 5534 5529 5525 5521 5517 5513 5509 5504 5499 5493 5488 5484 5479 5474 5468 5463 5460 5458 5455 5453 5451 5451 5451 5451 5451 5452 5453 5454 5457
5585 5580 5574 5569 5563 5559 5554 5550 5546 5542 5538 5534 5530 5526 5521 5517 5513 5509 5504 5500 5495 5491 5485 5480 5474 5470 5466 5462 5457 5452 5449 5446 5443 5441 5439 5440 5440 5441 5441 5442 5444 5445 5448
5573 5568 5563 5558 5553 5548 5543 5539 5534 5530 5526 5522 5518 5513 5509 5504 5500 5496 5491 5486 5481 5477 5472 5467 5461 5457 5454 5450 5446 5442 5439 5436 5433 5430 5429 5429 5431 5432 5433 5435 5437 5438 5440
5562 5557 5552 5547 5541 5536 5531 5527 5523 5518 5513 5509 5505 5500 5495 5491 5486 5482 5477 5472 5467 5463 5459 5454 5450 5445 5442 5438 5436 5432 5429 5427 5425 5423 5420 5421 5423 5425 5426 5428 5431 5432 5435